When you browse on this site, cookies collect data to enhance your experience and personalize the content and advertising you see.
Visit our Privacy Policy to learn more. By continuing to use the site, you agree to this use of cookies and data.
  • In Hungary
  • List of Countries
  • For 7 days
  • Water Temperature
  • Weather Map
  • News
  • Weather Widgets
  • user-avatar
    Login

    Hourly Weather Liberia

    Today, 5 April, Sunday

    Time Temperature Precipitation Wind Pressure Humidity
    00:00 +25°C° 0 mm 2 mps 744 mmHg 88%
    01:00 +24°C° 0 mm 2 mps 743 mmHg 89%
    02:00 +24°C° 0 mm 2 mps 743 mmHg 90%
    03:00 +24°C° 0 mm 2 mps 743 mmHg 91%
    04:00 +24°C° 0 mm 2 mps 743 mmHg 91%
    05:00 +24°C° 0 mm 2 mps 744 mmHg 91%
    06:00 +25°C° 0 mm 1 mps 744 mmHg 90%
    07:00 +27°C° 0 mm 2 mps 745 mmHg 77%
    08:00 +30°C° 0 mm 2 mps 745 mmHg 64%
    09:00 +34°C° 0 mm 2 mps 746 mmHg 51%
    10:00 +36°C° 0 mm 3 mps 745 mmHg 45%
    11:00 +38°C° 0 mm 3 mps 745 mmHg 39%
    12:00 +40°C° 0 mm 3 mps 745 mmHg 33%
    13:00 +40°C° 0 mm 4 mps 744 mmHg 34%
    14:00 +40°C° 0 mm 4 mps 743 mmHg 36%
    15:00 +39°C° 0 mm 5 mps 743 mmHg 38%
    16:00 +36°C° 0 mm 4 mps 743 mmHg 45%
    17:00 +34°C° 0 mm 3 mps 743 mmHg 53%
    18:00 +31°C° 0 mm 2 mps 743 mmHg 60%
    19:00 +29°C° 0 mm 2 mps 744 mmHg 67%
    20:00 +28°C° 0 mm 2 mps 744 mmHg 73%
    21:00 +27°C° 0 mm 2 mps 745 mmHg 80%
    22:00 +27°C° 0 mm 2 mps 745 mmHg 82%
    23:00 +26°C° 0 mm 2 mps 745 mmHg 85%

    Tomorrow, 6 April, Monday

    Time Temperature Precipitation Wind Pressure Humidity
    00:00 +26°C° 0 mm 2 mps 745 mmHg 87%
    01:00 +26°C° 0 mm 3 mps 745 mmHg 88%
    02:00 +26°C° 0 mm 3 mps 744 mmHg 88%
    03:00 +25°C° 0 mm 3 mps 744 mmHg 89%
    04:00 +25°C° 0 mm 2 mps 744 mmHg 89%
    05:00 +25°C° 0 mm 2 mps 745 mmHg 89%
    06:00 +25°C° 0 mm 2 mps 745 mmHg 89%
    07:00 +28°C° 0 mm 3 mps 745 mmHg 75%
    08:00 +31°C° 0 mm 3 mps 746 mmHg 61%
    09:00 +35°C° 0 mm 4 mps 747 mmHg 47%
    10:00 +36°C° 0 mm 4 mps 746 mmHg 41%
    11:00 +38°C° 0 mm 4 mps 746 mmHg 35%
    12:00 +40°C° 0 mm 4 mps 745 mmHg 29%
    13:00 +41°C° 0 mm 5 mps 744 mmHg 27%
    14:00 +41°C° 0 mm 5 mps 744 mmHg 25%
    15:00 +41°C° 0 mm 5 mps 743 mmHg 23%
    16:00 +38°C° 0 mm 4 mps 744 mmHg 32%
    17:00 +36°C° 0 mm 4 mps 744 mmHg 40%
    18:00 +34°C° 0 mm 3 mps 744 mmHg 48%
    19:00 +31°C° 0 mm 3 mps 744 mmHg 57%
    20:00 +29°C° 0 mm 3 mps 745 mmHg 67%
    21:00 +27°C° 0 mm 3 mps 745 mmHg 77%
    22:00 +27°C° 0 mm 2 mps 745 mmHg 79%
    23:00 +27°C° 0 mm 2 mps 745 mmHg 82%

    Day after tomorrow, 7 April, Tuesday

    Time Temperature Precipitation Wind Pressure Humidity
    00:00 +26°C° 0 mm 2 mps 745 mmHg 84%
    01:00 +26°C° 0 mm 2 mps 745 mmHg 85%
    02:00 +26°C° 0 mm 2 mps 745 mmHg 85%
    03:00 +26°C° 0 mm 2 mps 745 mmHg 85%
    04:00 +26°C° 0 mm 2 mps 745 mmHg 84%
    05:00 +27°C° 0 mm 3 mps 745 mmHg 83%
    06:00 +27°C° 0 mm 3 mps 745 mmHg 82%
    07:00 +29°C° 0 mm 4 mps 745 mmHg 72%
    08:00 +32°C° 0 mm 5 mps 746 mmHg 62%
    09:00 +34°C° 0 mm 6 mps 747 mmHg 52%
    10:00 +36°C° 0 mm 6 mps 746 mmHg 47%
    11:00 +38°C° 0 mm 6 mps 745 mmHg 42%
    12:00 +40°C° 0 mm 6 mps 745 mmHg 38%
    13:00 +40°C° 0 mm 6 mps 744 mmHg 36%
    14:00 +40°C° 0 mm 7 mps 743 mmHg 35%
    15:00 +40°C° 0 mm 7 mps 743 mmHg 33%
    16:00 +38°C° 0 mm 6 mps 743 mmHg 40%
    17:00 +35°C° 0 mm 5 mps 744 mmHg 47%
    18:00 +32°C° 0 mm 4 mps 744 mmHg 54%
    19:00 +30°C° 0 mm 4 mps 744 mmHg 61%
    20:00 +28°C° 0 mm 4 mps 745 mmHg 69%
    21:00 +27°C° 0 mm 3 mps 745 mmHg 77%
    22:00 +27°C° 0 mm 3 mps 745 mmHg 79%
    23:00 +26°C° 0 mm 3 mps 745 mmHg 81%

    8 April, Wednesday

    Time Temperature Precipitation Wind Pressure Humidity
    00:00 +26°C° 0 mm 3 mps 745 mmHg 83%
    01:00 +26°C° 0 mm 3 mps 745 mmHg 84%
    02:00 +26°C° 0 mm 3 mps 744 mmHg 85%
    03:00 +26°C° 0 mm 3 mps 744 mmHg 86%
    04:00 +26°C° 0 mm 3 mps 744 mmHg 85%
    05:00 +26°C° 0 mm 3 mps 744 mmHg 84%
    06:00 +26°C° 0 mm 3 mps 745 mmHg 83%
    07:00 +28°C° 0 mm 3 mps 745 mmHg 74%
    08:00 +30°C° 0 mm 4 mps 745 mmHg 65%
    09:00 +33°C° 0 mm 5 mps 746 mmHg 56%
    10:00 +35°C° 0 mm 5 mps 746 mmHg 50%
    11:00 +38°C° 0 mm 6 mps 745 mmHg 45%
    12:00 +39°C° 0 mm 6 mps 745 mmHg 39%
    13:00 +40°C° 0 mm 6 mps 744 mmHg 38%
    14:00 +40°C° 0 mm 6 mps 743 mmHg 37%
    15:00 +40°C° 0 mm 6 mps 742 mmHg 37%
    16:00 +38°C° 0 mm 6 mps 743 mmHg 44%
    17:00 +34°C° 0 mm 5 mps 743 mmHg 51%
    18:00 +32°C° 0 mm 5 mps 743 mmHg 58%
    19:00 +30°C° 0 mm 4 mps 744 mmHg 64%
    20:00 +29°C° 0 mm 4 mps 744 mmHg 71%
    21:00 +27°C° 0 mm 4 mps 745 mmHg 78%
    22:00 +27°C° 0 mm 4 mps 745 mmHg 80%
    23:00 +27°C° 0 mm 3 mps 745 mmHg 82%

    9 April, Thursday

    Time Temperature Precipitation Wind Pressure Humidity
    00:00 +26°C° 0 mm 3 mps 745 mmHg 85%
    01:00 +26°C° 0 mm 2 mps 744 mmHg 84%
    02:00 +26°C° 0 mm 2 mps 744 mmHg 84%
    03:00 +26°C° 0 mm 2 mps 744 mmHg 84%
    04:00 +26°C° 0 mm 2 mps 744 mmHg 84%
    05:00 +26°C° 0 mm 3 mps 744 mmHg 83%
    06:00 +26°C° 0 mm 3 mps 744 mmHg 83%
    07:00 +29°C° 0 mm 4 mps 745 mmHg 73%
    08:00 +32°C° 0 mm 4 mps 745 mmHg 63%
    09:00 +34°C° 0 mm 5 mps 745 mmHg 52%
    10:00 +36°C° 0 mm 5 mps 745 mmHg 47%
    11:00 +37°C° 0 mm 5 mps 744 mmHg 43%
    12:00 +39°C° 0 mm 5 mps 744 mmHg 38%
    13:00 +40°C° 0 mm 5 mps 743 mmHg 36%
    14:00 +40°C° 0 mm 5 mps 742 mmHg 33%
    15:00 +41°C° 0 mm 5 mps 742 mmHg 31%
    16:00 +38°C° 0 mm 4 mps 742 mmHg 36%
    17:00 +36°C° 0 mm 3 mps 742 mmHg 42%
    18:00 +34°C° 0 mm 2 mps 743 mmHg 48%
    19:00 +31°C° 0 mm 2 mps 743 mmHg 56%
    20:00 +30°C° 0 mm 2 mps 744 mmHg 64%
    21:00 +28°C° 0 mm 2 mps 745 mmHg 72%
    22:00 +27°C° 0 mm 2 mps 745 mmHg 76%
    23:00 +27°C° 0 mm 2 mps 745 mmHg 81%

    10 April, Friday

    Time Temperature Precipitation Wind Pressure Humidity
    00:00 +26°C° 0 mm 2 mps 745 mmHg 85%
    01:00 +25°C° 0 mm 2 mps 744 mmHg 84%
    02:00 +25°C° 0 mm 2 mps 744 mmHg 84%
    03:00 +24°C° 0 mm 2 mps 744 mmHg 84%
    04:00 +25°C° 0 mm 2 mps 744 mmHg 82%
    05:00 +25°C° 0 mm 2 mps 744 mmHg 81%
    06:00 +25°C° 0 mm 2 mps 744 mmHg 79%
    07:00 +28°C° 0 mm 2 mps 745 mmHg 65%
    08:00 +31°C° 0 mm 2 mps 745 mmHg 50%
    09:00 +36°C° 0 mm 2 mps 745 mmHg 35%
    10:00 +37°C° 0 mm 2 mps 745 mmHg 31%
    11:00 +39°C° 0 mm 3 mps 745 mmHg 27%
    12:00 +42°C° 0 mm 3 mps 744 mmHg 23%
    13:00 +40°C° 0 mm 3 mps 744 mmHg 24%
    14:00 +41°C° 0 mm 4 mps 743 mmHg 26%
    15:00 +41°C° 0 mm 4 mps 742 mmHg 27%
    16:00 +37°C° 0 mm 3 mps 742 mmHg 34%
    17:00 +35°C° 0 mm 3 mps 743 mmHg 41%
    18:00 +31°C° 0 mm 2 mps 743 mmHg 49%
    19:00 +30°C° 0 mm 2 mps 743 mmHg 55%
    20:00 +29°C° 0 mm 1 mps 744 mmHg 62%
    21:00 +28°C° 0 mm 1 mps 745 mmHg 69%
    22:00 +27°C° 0 mm 1 mps 745 mmHg 72%
    23:00 +26°C° 0 mm 1 mps 745 mmHg 76%
    Show more